TimeCST,TemperatureF,Dew PointF,Humidity,Sea Level PressureIn,VisibilityMPH,Wind Direction,Wind SpeedMPH,Gust SpeedMPH,PrecipitationIn,Events,Conditions,WindDirDegrees,DateUTC
12:53 AM,39.0,30.0,70,29.90,10.0,SSW,16.1,-,N/A,,Clear,210,2013-01-09 06:53:00
1:53 AM,39.0,30.0,70,29.88,10.0,WSW,18.4,21.9,N/A,,Partly Cloudy,240,2013-01-09 07:53:00
2:53 AM,37.9,30.0,73,29.89,10.0,WSW,21.9,31.1,N/A,,Clear,250,2013-01-09 08:53:00
3:53 AM,37.0,30.0,76,29.90,10.0,West,23.0,31.1,N/A,,Clear,260,2013-01-09 09:53:00
4:34 AM,35.6,28.4,75,29.91,10.0,West,24.2,39.1,N/A,,Mostly Cloudy,270,2013-01-09 10:34:00
4:53 AM,35.1,28.9,78,29.94,10.0,West,24.2,33.4,N/A,,Mostly Cloudy,270,2013-01-09 10:53:00
5:08 AM,33.8,28.4,81,29.93,10.0,West,20.7,31.1,N/A,,Scattered Clouds,270,2013-01-09 11:08:00
5:53 AM,34.0,28.0,79,29.98,10.0,West,18.4,29.9,N/A,,Clear,270,2013-01-09 11:53:00
6:53 AM,33.1,28.0,82,30.01,10.0,WSW,21.9,31.1,N/A,,Clear,250,2013-01-09 12:53:00
7:53 AM,33.1,27.0,78,30.03,10.0,WSW,18.4,24.2,N/A,,Clear,250,2013-01-09 13:53:00
8:53 AM,34.0,27.0,75,30.05,10.0,WSW,26.5,36.8,N/A,,Clear,250,2013-01-09 14:53:00
9:53 AM,35.1,27.0,72,30.06,10.0,West,23.0,32.2,N/A,,Clear,260,2013-01-09 15:53:00
10:53 AM,37.9,27.0,65,30.08,-9999.0,West,25.3,32.2,N/A,,Clear,260,2013-01-09 16:53:00
12:53 PM,37.0,26.1,65,30.10,10.0,West,27.6,36.8,N/A,,Clear,260,2013-01-09 18:53:00
1:53 PM,37.9,25.0,60,30.16,10.0,West,25.3,33.4,N/A,,Clear,260,2013-01-09 19:53:00
2:53 PM,37.9,25.0,60,30.22,10.0,WSW,24.2,33.4,N/A,,Clear,250,2013-01-09 20:53:00
3:53 PM,37.0,25.0,62,30.28,10.0,West,21.9,29.9,N/A,,Clear,270,2013-01-09 21:53:00
4:53 PM,36.0,24.1,62,30.32,10.0,West,18.4,25.3,N/A,,Clear,270,2013-01-09 22:53:00
5:53 PM,35.1,23.0,61,30.37,10.0,West,15.0,-,N/A,,Clear,280,2013-01-09 23:53:00
6:53 PM,30.9,21.9,69,30.41,10.0,West,9.2,-,N/A,,Clear,280,2013-01-10 00:53:00
7:53 PM,30.0,21.9,72,30.43,10.0,West,9.2,-,N/A,,Clear,270,2013-01-10 01:53:00
8:53 PM,30.0,21.0,69,30.45,10.0,West,5.8,-,N/A,,Clear,260,2013-01-10 02:53:00
9:53 PM,28.0,19.9,72,30.44,10.0,WNW,5.8,-,N/A,,Clear,290,2013-01-10 03:53:00
10:53 PM,25.0,18.0,75,30.44,10.0,NW,4.6,-,N/A,,Clear,310,2013-01-10 04:53:00
11:53 PM,27.0,19.0,72,30.41,10.0,NNE,4.6,-,N/A,,Clear,20,2013-01-10 05:53:00